This demonstration page uses our WeatherBlox Daily Observations layout. Learn more.

Left ArrowRight Arrow

Hourly Observations for February 24, 2015

Temp ( °F °C ) Dew Point ( °F °C ) Humidity (%) Winds ( mph kmh ) Pressure ( in mb ) Visibility ( mi km ) Precip ( " mm )
12:15 am 00:15 Clear 16 -9 9 -13 73 73 SW 17 28 30.30 1026 10 16 0.00 0.00
12:55 am 00:55 Clear 16 -9 9 -13 73 73 WSW 16 26 30.30 1026 10 16 0.00 0.00
1:15 am 01:15 Clear 16 -9 9 -13 73 73 WSW 15 24 30.27 1025 10 16 0.00 0.00
1:35 am 01:35 Clear 16 -9 9 -13 73 73 WSW 13 20 30.27 1025 10 16 0.00 0.00
1:55 am 01:55 Clear 16 -9 9 -13 73 73 SW 14 22 30.27 1025 10 16 0.00 0.00
2:15 am 02:15 Clear 16 -9 9 -13 73 73 WSW 14 22 30.24 1024 10 16 0.00 0.00
2:35 am 02:35 Clear 16 -9 9 -13 73 73 W 12 19 30.24 1024 10 16 0.00 0.00
2:55 am 02:55 Clear 16 -9 9 -13 73 73 W 10 17 30.24 1024 10 16 0.00 0.00
3:15 am 03:15 Clear 16 -9 9 -13 73 73 W 14 22 30.21 1023 10 16 0.00 0.00
3:35 am 03:35 Clear 16 -9 9 -13 73 73 W 12 19 30.21 1023 10 16 0.00 0.00
3:55 am 03:55 Clear 16 -9 9 -13 73 73 W 10 17 30.18 1022 10 16 0.00 0.00
4:15 am 04:15 Clear 16 -9 9 -13 73 73 W 10 17 30.18 1022 10 16 0.00 0.00
4:35 am 04:35 Clear 18 -8 9 -13 68 68 W 12 19 30.15 1021 10 16 0.00 0.00
4:55 am 04:55 Clear 18 -8 9 -13 68 68 W 10 17 30.15 1021 10 16 0.00 0.00
5:15 am 05:15 Clear 18 -8 9 -13 68 68 W 9 15 30.15 1021 10 16 0.00 0.00
5:35 am 05:35 Clear 19 -7 10 -12 68 68 W 7 11 30.15 1021 10 16 0.00 0.00
5:55 am 05:55 Clear 21 -6 10 -12 63 63 WNW 10 17 30.15 1021 10 16 0.00 0.00
6:15 am 06:15 Clear 19 -7 10 -12 68 68 WNW 9 15 30.15 1021 10 16 0.00 0.00
6:35 am 06:35 Clear 21 -6 12 -11 68 68 WNW 10 17 30.15 1021 10 16 0.00 0.00
6:55 am 06:55 Clear 21 -6 12 -11 68 68 WNW 12 19 30.15 1021 10 16 0.00 0.00
7:15 am 07:15 Clear 23 -5 12 -11 63 63 WNW 10 17 30.12 1020 10 16 0.00 0.00
7:35 am 07:35 Sunny 21 -6 12 -11 68 68 W 10 17 30.15 1021 10 16 0.00 0.00
7:55 am 07:55 Sunny 25 -4 14 -10 63 63 W 10 17 30.12 1020 10 16 0.00 0.00
8:15 am 08:15 Sunny 27 -3 16 -9 64 64 WNW 12 19 30.15 1021 10 16 0.00 0.00
8:35 am 08:35 Sunny 28 -2 16 -9 59 59 WNW 13 20 30.15 1021 10 16 0.00 0.00
8:55 am 08:55 Sunny 30 -1 18 -8 59 59 WNW 12 19 30.12 1020 10 16 0.00 0.00
9:15 am 09:15 Sunny 34 1 19 -7 56 56 WNW 14 22 30.12 1020 10 16 0.00 0.00
9:35 am 09:35 Sunny 36 2 21 -6 56 56 NW 18 30 30.09 1019 10 16 0.00 0.00
9:55 am 09:55 Sunny 39 4 21 -6 48 48 NNW 18 30 30.09 1019 10 16 0.00 0.00
10:15 am 10:15 Sunny 39 4 21 -6 48 48 NNW 18 30 30.09 1019 10 16 0.00 0.00
10:35 am 10:35 Sunny 41 5 21 -6 45 45 NNW 21 33 30.06 1018 10 16 0.00 0.00
10:55 am 10:55 Sunny 43 6 21 -6 42 42 N 18 30 30.06 1018 10 16 0.00 0.00
11:15 am 11:15 Sunny 45 7 21 -6 39 39 N 18 30 30.06 1018 10 16 0.00 0.00
11:35 am 11:35 Sunny 45 7 19 -7 37 37 N 20 31 30.06 1018 10 16 0.00 0.00
11:55 am 11:55 Sunny 46 8 19 -7 34 34 NNW 20 31 30.06 1018 10 16 0.00 0.00
12:15 pm 12:15 Sunny 46 8 19 -7 34 34 N 14 22 30.06 1018 10 16 0.00 0.00
12:35 pm 12:35 Sunny 48 9 19 -7 32 32 N 15 24 30.00 1016 10 16 0.00 0.00
12:55 pm 12:55 Sunny 48 9 19 -7 32 32 N 14 22 30.00 1016 10 16 0.00 0.00
1:15 pm 13:15 Sunny 48 9 19 -7 32 32 N 13 20 29.97 1015 10 16 0.00 0.00
1:35 pm 13:35 Sunny 48 9 19 -7 32 32 NNW 12 19 29.97 1015 10 16 0.00 0.00
1:55 pm 13:55 Sunny 50 10 21 -6 32 32 N 12 19 29.97 1015 10 16 0.00 0.00
2:15 pm 14:15 Sunny 50 10 21 -6 32 32 NW 12 19 29.97 1015 10 16 0.00 0.00
2:35 pm 14:35 Sunny 52 11 21 -6 30 30 NNW 15 24 29.94 1014 10 16 0.00 0.00
2:55 pm 14:55 Sunny 52 11 21 -6 30 30 N 14 22 29.94 1014 10 16 0.00 0.00
3:15 pm 15:15 Sunny 52 11 21 -6 30 30 NNW 14 22 29.94 1014 10 16 0.00 0.00
3:35 pm 15:35 Sunny 52 11 21 -6 30 30 N 8 13 29.94 1014 10 16 0.00 0.00
3:55 pm 15:55 Sunny 52 11 21 -6 30 30 NNW 10 17 29.94 1014 10 16 0.00 0.00
4:15 pm 16:15 Sunny 52 11 21 -6 30 30 NNW 9 15 29.88 1012 10 16 0.00 0.00
4:35 pm 16:35 Sunny 52 11 21 -6 30 30 NNW 10 17 29.88 1012 10 16 0.00 0.00
4:55 pm 16:55 Sunny 52 11 21 -6 30 30 NNW 12 19 29.88 1012 10 16 0.00 0.00
5:15 pm 17:15 Sunny 50 10 21 -6 32 32 N 7 11 29.91 1013 10 16 0.00 0.00
5:35 pm 17:35 Sunny 50 10 21 -6 32 32 NW 3 6 29.91 1013 10 16 0.00 0.00
5:55 pm 17:55 Sunny 46 8 19 -7 34 34 Calm 29.91 1013 10 16 0.00 0.00
6:15 pm 18:15 Sunny 45 7 19 -7 37 37 Calm 29.94 1014 10 16 0.00 0.00
6:35 pm 18:35 Clear 45 7 19 -7 37 37 E 3 6 29.94 1014 10 16 0.00 0.00
6:55 pm 18:55 Clear 43 6 19 -7 39 39 ESE 6 9 29.91 1013 10 16 0.00 0.00
7:15 pm 19:15 Clear 37 3 18 -8 45 45 SE 6 9 29.94 1014 10 16 0.00 0.00
7:35 pm 19:35 Clear 37 3 19 -7 48 48 SE 5 7 29.94 1014 10 16 0.00 0.00
7:55 pm 19:55 Clear 36 2 18 -8 48 48 SSE 7 11 29.94 1014 10 16 0.00 0.00
8:15 pm 20:15 Clear 32 0 18 -8 55 55 S 9 15 29.97 1015 10 16 0.00 0.00
8:35 pm 20:35 Clear 34 1 18 -8 51 51 SSE 6 9 29.94 1014 10 16 0.00 0.00
8:55 pm 20:55 Clear 34 1 19 -7 56 56 S 8 13 29.94 1014 10 16 0.00 0.00
9:15 pm 21:15 Clear 30 -1 18 -8 59 59 S 7 11 29.97 1015 10 16 0.00 0.00
9:35 pm 21:35 Clear 30 -1 18 -8 59 59 S 7 11 29.97 1015 10 16 0.00 0.00
9:55 pm 21:55 Clear 32 0 19 -7 60 60 SSW 9 15 29.97 1015 10 16 0.00 0.00
10:15 pm 22:15 Clear 30 -1 19 -7 64 64 S 7 11 29.97 1015 10 16 0.00 0.00
10:35 pm 22:35 Clear 30 -1 19 -7 64 64 S 7 11 29.97 1015 10 16 0.00 0.00
10:55 pm 22:55 Clear 30 -1 19 -7 64 64 S 9 15 29.94 1014 10 16 0.00 0.00
11:15 pm 23:15 Clear 30 -1 19 -7 64 64 S 8 13 29.94 1014 10 16 0.00 0.00
11:35 pm 23:35 Clear 32 0 19 -7 60 60 SSW 8 13 29.91 1013 10 16 0.00 0.00
11:55 pm 23:55 Clear 34 1 21 -6 60 60 S 10 17 29.88 1012 10 16 0.00 0.00

Powered by AerisWeather